• In Hungary
  • List of Countries
  • For 7 days
  • Water Temperature
  • Satellite Maps
  • Weather Map
  • News
  • Weather Widgets
  • user-avatar
    Login

    Hourly Weather Borovec

    Today, 19 October, Thursday

    Time Temperature Precipitation Wind Pressure Humidity
    00:00 +15°C° 0 mm 1 mps 713 mmHg 58%
    01:00 +14°C° 0 mm 1 mps 713 mmHg 59%
    02:00 +14°C° 0 mm 1 mps 713 mmHg 60%
    03:00 +14°C° 0 mm 1 mps 712 mmHg 61%
    04:00 +13°C° 0 mm 1 mps 712 mmHg 62%
    05:00 +13°C° 0 mm 1 mps 712 mmHg 63%
    06:00 +14°C° 0 mm 1 mps 712 mmHg 63%
    07:00 +14°C° 0 mm 1 mps 712 mmHg 62%
    08:00 +16°C° 0 mm 1 mps 713 mmHg 56%
    09:00 +19°C° 0 mm 1 mps 713 mmHg 50%
    10:00 +21°C° 0 mm 1 mps 713 mmHg 43%
    11:00 +24°C° 0 mm 1 mps 713 mmHg 36%
    12:00 +24°C° 0 mm 1 mps 713 mmHg 34%
    13:00 +25°C° 0 mm 1 mps 713 mmHg 32%
    14:00 +26°C° 0 mm 1 mps 713 mmHg 29%
    15:00 +24°C° 0 mm 1 mps 712 mmHg 34%
    16:00 +23°C° 0 mm 1 mps 712 mmHg 38%
    17:00 +21°C° 0 mm 1 mps 712 mmHg 42%
    18:00 +20°C° 0 mm 1 mps 712 mmHg 45%
    19:00 +18°C° 0 mm 1 mps 712 mmHg 48%
    20:00 +16°C° 0 mm 1 mps 712 mmHg 51%
    21:00 +15°C° 0 mm 1 mps 712 mmHg 52%
    22:00 +15°C° 0 mm 1 mps 712 mmHg 53%
    23:00 +14°C° 0 mm 1 mps 712 mmHg 54%

    Tomorrow, 20 October, Friday

    Time Temperature Precipitation Wind Pressure Humidity
    00:00 +14°C° 0 mm 1 mps 712 mmHg 54%
    01:00 +14°C° 0 mm 1 mps 712 mmHg 54%
    02:00 +14°C° 0 mm 1 mps 712 mmHg 55%
    03:00 +13°C° 0 mm 1 mps 712 mmHg 55%
    04:00 +13°C° 0 mm 1 mps 711 mmHg 55%
    05:00 +13°C° 0 mm 1 mps 711 mmHg 56%
    06:00 +13°C° 0 mm 1 mps 712 mmHg 55%
    07:00 +14°C° 0 mm 1 mps 712 mmHg 55%
    08:00 +15°C° 0 mm 1 mps 712 mmHg 54%
    09:00 +18°C° 0 mm 1 mps 713 mmHg 48%
    10:00 +21°C° 0 mm 1 mps 713 mmHg 42%
    11:00 +23°C° 0 mm 1 mps 713 mmHg 36%
    12:00 +24°C° 0 mm 1 mps 713 mmHg 34%
    13:00 +24°C° 0 mm 1 mps 713 mmHg 33%
    14:00 +25°C° 0 mm 1 mps 713 mmHg 32%
    15:00 +24°C° 0 mm 1 mps 712 mmHg 36%
    16:00 +22°C° 0 mm 1 mps 712 mmHg 41%
    17:00 +21°C° 0 mm 1 mps 712 mmHg 45%
    18:00 +18°C° 0 mm 0 mps 712 mmHg 48%
    19:00 +16°C° 0 mm 0 mps 712 mmHg 52%
    20:00 +15°C° 0 mm 0 mps 712 mmHg 55%
    21:00 +14°C° 0 mm 0 mps 712 mmHg 56%
    22:00 +15°C° 0 mm 1 mps 712 mmHg 57%
    23:00 +15°C° 0 mm 1 mps 713 mmHg 58%

    Day after tomorrow, 21 October, Saturday

    Time Temperature Precipitation Wind Pressure Humidity
    00:00 +14°C° 0 mm 1 mps 713 mmHg 59%
    01:00 +14°C° 0 mm 1 mps 713 mmHg 60%
    02:00 +14°C° 0 mm 1 mps 713 mmHg 61%
    03:00 +13°C° 0 mm 1 mps 712 mmHg 62%
    04:00 +13°C° 0 mm 1 mps 712 mmHg 63%
    05:00 +13°C° 0 mm 1 mps 712 mmHg 64%
    06:00 +13°C° 0 mm 1 mps 712 mmHg 64%
    07:00 +14°C° 0 mm 1 mps 712 mmHg 63%
    08:00 +14°C° 0 mm 1 mps 713 mmHg 62%
    09:00 +18°C° 0 mm 1 mps 713 mmHg 55%
    10:00 +20°C° 0 mm 1 mps 713 mmHg 47%
    11:00 +22°C° 0 mm 1 mps 713 mmHg 40%
    12:00 +23°C° 0 mm 1 mps 713 mmHg 38%
    13:00 +23°C° 0 mm 1 mps 713 mmHg 36%
    14:00 +24°C° 0 mm 1 mps 712 mmHg 35%
    15:00 +22°C° 0 mm 1 mps 712 mmHg 39%
    16:00 +21°C° 0 mm 1 mps 712 mmHg 43%
    17:00 +20°C° 0 mm 1 mps 712 mmHg 48%
    18:00 +19°C° 0 mm 1 mps 712 mmHg 51%
    19:00 +16°C° 0 mm 1 mps 712 mmHg 55%
    20:00 +15°C° 0 mm 1 mps 712 mmHg 59%
    21:00 +14°C° 0 mm 1 mps 712 mmHg 60%
    22:00 +14°C° 0 mm 1 mps 712 mmHg 62%
    23:00 +13°C° 0 mm 1 mps 712 mmHg 63%

    22 October, Sunday

    Time Temperature Precipitation Wind Pressure Humidity
    00:00 +13°C° 0 mm 1 mps 712 mmHg 64%
    01:00 +13°C° 0 mm 1 mps 712 mmHg 65%
    02:00 +12°C° 0 mm 1 mps 711 mmHg 66%
    03:00 +12°C° 0 mm 1 mps 711 mmHg 67%
    04:00 +12°C° 0 mm 1 mps 711 mmHg 68%
    05:00 +12°C° 0 mm 1 mps 711 mmHg 68%
    06:00 +12°C° 0 mm 1 mps 711 mmHg 67%
    07:00 +13°C° 0 mm 1 mps 711 mmHg 66%
    08:00 +13°C° 0 mm 1 mps 711 mmHg 65%
    09:00 +16°C° 0 mm 1 mps 711 mmHg 57%
    10:00 +17°C° 0 mm 0 mps 712 mmHg 50%
    11:00 +20°C° 0 mm 0 mps 712 mmHg 42%
    12:00 +20°C° 0 mm 0 mps 711 mmHg 40%
    13:00 +21°C° 0 mm 0 mps 711 mmHg 37%
    14:00 +24°C° 0 mm 1 mps 711 mmHg 35%
    15:00 +22°C° 0 mm 1 mps 710 mmHg 39%
    16:00 +21°C° 0 mm 1 mps 710 mmHg 43%
    17:00 +20°C° 0 mm 1 mps 709 mmHg 47%
    18:00 +18°C° 0 mm 1 mps 709 mmHg 51%
    19:00 +16°C° 0 mm 1 mps 709 mmHg 54%
    20:00 +15°C° 0 mm 1 mps 709 mmHg 57%
    21:00 +14°C° 0 mm 1 mps 709 mmHg 58%
    22:00 +14°C° 0 mm 1 mps 709 mmHg 59%
    23:00 +14°C° 0 mm 1 mps 709 mmHg 59%

    23 October, Monday

    Time Temperature Precipitation Wind Pressure Humidity
    00:00 +13°C° 0 mm 1 mps 708 mmHg 59%
    01:00 +13°C° 0 mm 1 mps 708 mmHg 59%
    02:00 +13°C° 0 mm 1 mps 708 mmHg 60%
    03:00 +13°C° 0 mm 1 mps 707 mmHg 60%
    04:00 +13°C° 0 mm 1 mps 707 mmHg 61%
    05:00 +13°C° 0 mm 2 mps 707 mmHg 62%
    06:00 +13°C° 0 mm 2 mps 707 mmHg 63%
    07:00 +13°C° 0 mm 2 mps 706 mmHg 64%
    08:00 +13°C° 0 mm 2 mps 706 mmHg 64%
    09:00 +15°C° 0 mm 2 mps 706 mmHg 59%
    10:00 +16°C° 0 mm 2 mps 706 mmHg 54%
    11:00 +18°C° 0 mm 2 mps 706 mmHg 49%
    12:00 +18°C° 0 mm 2 mps 706 mmHg 49%
    13:00 +18°C° 0 mm 2 mps 705 mmHg 49%
    14:00 +19°C° 0 mm 2 mps 705 mmHg 49%
    15:00 +18°C° 0.1 mm 2 mps 705 mmHg 55%
    16:00 +17°C° 0.1 mm 2 mps 705 mmHg 62%
    17:00 +15°C° 0.1 mm 2 mps 705 mmHg 68%
    18:00 +15°C° 0.2 mm 2 mps 705 mmHg 72%
    19:00 +14°C° 0.2 mm 2 mps 705 mmHg 77%
    20:00 +13°C° 0.2 mm 2 mps 705 mmHg 81%
    21:00 +13°C° 0.1 mm 2 mps 706 mmHg 82%
    22:00 +13°C° 0.1 mm 2 mps 706 mmHg 84%
    23:00 +13°C° 0.1 mm 2 mps 706 mmHg 85%

    24 October, Tuesday

    Time Temperature Precipitation Wind Pressure Humidity
    00:00 +12°C° 0.1 mm 2 mps 706 mmHg 87%
    01:00 +12°C° 0.1 mm 2 mps 706 mmHg 88%
    02:00 +12°C° 0.1 mm 2 mps 706 mmHg 89%
    03:00 +12°C° 0.1 mm 2 mps 706 mmHg 89%
    04:00 +11°C° 0.1 mm 3 mps 707 mmHg 89%
    05:00 +11°C° 0.1 mm 3 mps 707 mmHg 89%
    06:00 +11°C° 0.1 mm 3 mps 707 mmHg 89%
    07:00 +11°C° 0.1 mm 3 mps 707 mmHg 88%
    08:00 +11°C° 0.1 mm 3 mps 708 mmHg 87%
    09:00 +11°C° 0.4 mm 3 mps 708 mmHg 86%
    10:00 +11°C° 0.4 mm 3 mps 708 mmHg 85%
    11:00 +11°C° 0.4 mm 4 mps 709 mmHg 83%
    12:00 +11°C° 0.4 mm 4 mps 709 mmHg 83%
    13:00 +11°C° 0.4 mm 4 mps 709 mmHg 83%
    14:00 +11°C° 0.4 mm 4 mps 709 mmHg 83%
    15:00 +11°C° 0.2 mm 4 mps 709 mmHg 84%
    16:00 +11°C° 0.2 mm 4 mps 710 mmHg 85%
    17:00 +11°C° 0.2 mm 4 mps 710 mmHg 86%
    18:00 +10°C° 0.1 mm 4 mps 710 mmHg 85%
    19:00 +10°C° 0.1 mm 4 mps 711 mmHg 85%
    20:00 +9°C° 0.1 mm 5 mps 712 mmHg 84%
    21:00 +8°C° 0 mm 4 mps 712 mmHg 84%
    22:00 +8°C° 0 mm 4 mps 712 mmHg 84%
    23:00 +8°C° 0 mm 4 mps 713 mmHg 84%
    Show more